Home   Weather   La Rochelle   Past weeks
Flag for France

Past Weather in La Rochelle, Nouvelle-Aquitaine, France — Yesterday and Last 2 Weeks

Now
63 °F

Mostly cloudy.


Feels Like: 63 °F
Forecast: 69 / 62 °F
Wind: 8 mph from West

Location: La Rochelle Airport

Current Time: Sep 23, 2019 at 3:24:41 pm

Latest Report: Sep 23, 2019 at 3:00 pm


Visibility: N/A

Pressure: 30.04 "Hg

Humidity: 77%

Dew Point: 55 °F

Location of La RochelleLocation

Past Weather in La Rochelle — Graph

°F

La Rochelle Temperature Yesterday

Maximum temperature yesterday: 70 °F (at 12:00 am)
Minimum temperature yesterday: 63 °F (at 7:30 am)
Average temperature yesterday: 67 °F

High & Low Weather Summary for the Past Weeks

 TemperatureHumidityPressure
High90 °F (Sep 14, 4:00 pm)100% (Sep 10, 8:00 am)30.51 "Hg (Sep 10, 8:00 am)
Low48 °F (Sep 9, 6:30 am)21% (Sep 19, 4:00 pm)29.68 "Hg (Sep 22, 12:30 am)
Average68 °F63%30.11 "Hg
* Reported Sep 8 2:00 pm — Sep 23 2:00 pm, La Rochelle. Weather by CustomWeather, © 2019

Note: Actual official high and low records may vary slightly from our data, if they occured in-between our weather recording intervals... More about our weather records

Advertising

La Rochelle Weather History for the Previous 24 Hours

Scroll right to see more
 ConditionsComfort  
Time TempWeatherWind HumidityBarometerVisibility
2:00 pm
Mon, Sep 23
64 °FPartly sunny.13 mph88%30.04 "HgN/A
1:30 pm64 °FBroken clouds.14 mph88%30.04 "HgN/A
1:00 pm64 °FBroken clouds.14 mph88%30.04 "HgN/A
12:30 pm64 °FLight rain. Broken clouds.17 mph83%30.04 "HgN/A
12:00 pm66 °FBroken clouds.14 mph83%30.04 "HgN/A
11:30 am66 °FBroken clouds.13 mph83%30.04 "HgN/A
11:00 am64 °FPartly sunny.13 mph88%30.04 "HgN/A
10:30 am64 °FBroken clouds.12 mph83%30.04 "HgN/A
10:00 am63 °FLow clouds.9 mph94%30.04 "HgN/A
9:30 am63 °FOvercast.10 mph88%30.04 "HgN/A
9:00 am63 °FPartly sunny.8 mph94%30.04 "HgN/A
8:30 am61 °FSunny.7 mph94%30.04 "Hg10 mi
8:00 am61 °FSunny.8 mph94%30.04 "Hg10 mi
7:30 am63 °FClear.7 mph83%30.01 "Hg10 mi
7:00 am61 °FClear.7 mph88%30.01 "Hg10 mi
6:30 am61 °FClear.6 mph88%30.01 "Hg10 mi
6:00 am61 °FClear.5 mph88%30.01 "Hg10 mi
5:30 am61 °FClear.6 mph88%30.01 "Hg10 mi
5:00 am61 °FClear.6 mph88%30.01 "Hg10 mi
4:30 am61 °FPassing clouds.3 mph88%30.01 "HgN/A
4:00 am61 °FPassing clouds.3 mph88%30.01 "HgN/A
3:30 am61 °FClear.5 mph88%30.01 "Hg10 mi
3:00 am61 °FClear.6 mph88%30.01 "Hg10 mi
2:30 am63 °FClear.6 mph83%30.01 "Hg10 mi
2:00 am61 °FClear.5 mph88%30.01 "Hg10 mi
1:30 am63 °FClear.6 mph83%30.01 "Hg10 mi
1:00 am63 °FPassing clouds.6 mph83%29.98 "HgN/A
12:30 am63 °FPassing clouds.7 mph83%29.98 "HgN/A
12:00 am63 °FClear.9 mph83%29.98 "Hg10 mi
11:30 pm
Sun, Sep 22
63 °FPassing clouds.9 mph83%29.98 "HgN/A
11:00 pm63 °FPassing clouds.10 mph83%29.95 "HgN/A
10:30 pm63 °FClear.10 mph83%29.95 "Hg10 mi
10:00 pm64 °FPassing clouds.9 mph78%29.95 "HgN/A
9:30 pm64 °FPassing clouds.12 mph78%29.95 "HgN/A
9:00 pm64 °FPassing clouds.13 mph78%29.92 "HgN/A
8:30 pm64 °FPassing clouds.12 mph78%29.92 "HgN/A
8:00 pm64 °FMild.13 mph73%29.92 "HgN/A
7:30 pm66 °FPassing clouds.15 mph68%29.92 "HgN/A
7:00 pm66 °FBroken clouds.12 mph73%29.92 "HgN/A
6:30 pm68 °FScattered clouds.15 mph69%29.89 "HgN/A
6:00 pm68 °FBroken clouds.15 mph69%29.89 "HgN/A
5:30 pm68 °FScattered clouds.18 mph73%29.89 "HgN/A
5:00 pm68 °FBroken clouds.20 mph69%29.86 "HgN/A
4:30 pm70 °FSunny.20 mph64%29.86 "Hg10 mi
4:00 pm70 °FScattered clouds.15 mph69%29.86 "HgN/A
3:30 pm70 °FPassing clouds.18 mph64%29.86 "HgN/A
3:00 pm70 °FPassing clouds.20 mph64%29.83 "HgN/A
Weather by CustomWeather, © 2019

See weather overview